Location: Bottom School (historical)
(37.9078°N, 89.3593°W)
Time: 19:43:44
(UTC+00:00)

SL-4 R/B - Pass Details

Date: 05 July 2022
Orbit: 425 x 653 km, 51.6° (Epoch: 16 August)

Event Time Altitude Azimuth Distance (km) Brightness Sun altitude
Rises 09:44:33 0° 316° (NW) 2,564 5.4 -10.0°
Reaches altitude 10° 09:47:27 10° 341° (NNW) 1,732 4.8 -9.5°
Maximum altitude 09:49:48 15° 18° (NNE) 1,472 5.1 -9.2°
Drops below altitude 10° 09:52:16 10° 55° (NE) 1,816 6.4 -8.8°
Sets 09:55:24 0° 78° (ENE) 2,766 6.9 -8.3°
